Total_Precipitation_Accumulation
0.05 0.04 0.02 0.01 0.01 0.01 0.02 0.01 0.01 0.01 0.01 0.01 0.01 0.01 0.01 0.02 0.02 0.02 0.03 0.02 0.02 0.02 0.02 0.02 0.02 0.02 0.02 0.03 0.03 0.02 0.02 0.02 0.02 0.02 0.02 0.03 0.03 0.02 0.02 0.01 0.01 0.01 0.01 0.02 0.06 0.12 0.13 0.12 0.11 0.10 0.11 0.17 0.22 0.20 0.19 0.17 0.14 0.13 0.14 0.17 0.19 0.18 0.16 0.23 0.25 0.18 0.06 0.01 0.01 0.02 0.02 0.03 0.06 0.08 0.11 0.13 0.11 0.08 0.09 0.11 0.19 0.23 0.22 0.22 0.23
0.02 0.01 0.01 0.01 0.01 0.02 0.02 0.02 0.02 0.01 0.01 0.01 0.01 0.01 0.01 0.01 0.01 0.01 0.02 0.02 0.04 0.06 0.05 0.16 0.05 0.05 0.05 0.04 0.04 0.03 0.03 0.03 0.03 0.03 0.03 0.03 0.02 0.02 0.02 0.02 0.02 0.01 0.01 0.01 0.01 0.02 0.06 0.13 0.11 0.09 0.11 0.16 0.20 0.21 0.21 0.21 0.21 0.19 0.16 0.15 0.17 0.18 0.15 0.18 0.22 0.17 0.13 0.04 0.02 0.01 0.01 0.03 0.07 0.06 0.10 0.11 0.13 0.13 0.11 0.12 0.11 0.16 0.20 0.20 0.23
0.01 0.01 0.02 0.02 0.02 0.02 0.02 0.02 0.03 0.03 0.03 0.04 0.02 0.03 0.03 0.02 0.02 0.03 0.03 0.03 0.04 0.05 0.07 0.10 0.10 0.11 0.12 0.13 0.12 0.11 0.09 0.08 0.07 0.06 0.06 0.06 0.06 0.06 0.04 0.03 0.03 0.02 0.02 0.01 0.01 0.06 0.04 0.06 0.08 0.10 0.12 0.17 0.17 0.20 0.20 0.22 0.22 0.22 0.18 0.15 0.13 0.12 0.12 0.13 0.17 0.18 0.13 0.08 0.04 0.02 0.02 0.03 0.05 0.11 0.11 0.11 0.11 0.13 0.16 0.16 0.18 0.17 0.19 0.16 0.19
0.01 0.02 0.03 0.03 0.02 0.03 0.03 0.03 0.03 0.03 0.02 0.04 0.02 0.04 0.02 0.03 0.04 0.07 0.07 0.10 0.11 0.09 0.09 0.08 0.07 0.06 0.06 0.05 0.05 0.05 0.04 0.04 0.04 0.03 0.03 0.03 0.03 0.02 0.02 0.04 0.06 0.08 0.07 0.04 0.05 0.04 0.04 0.06 0.05 0.04 0.10 0.16 0.15 0.15 0.16 0.20 0.22 0.22 0.20 0.16 0.13 0.10 0.09 0.10 0.15 0.18 0.14 0.12 0.07 0.05 0.03 0.03 0.04 0.05 0.07 0.12 0.15 0.18 0.21 0.22 0.21 0.22 0.18 0.18 0.21
0.02 0.03 0.02 0.03 0.02 0.03 0.03 0.02 0.02 0.03 0.05 0.04 0.04 0.06 0.04 0.05 0.06 0.07 0.07 0.06 0.06 0.06 0.06 0.06 0.06 0.06 0.06 0.06 0.05 0.05 0.05 0.04 0.04 0.04 0.03 0.03 0.03 0.03 0.03 0.03 0.03 0.03 0.04 0.05 0.06 0.06 0.06 0.05 0.07 0.12 0.09 0.06 0.09 0.16 0.16 0.19 0.24 0.21 0.18 0.18 0.15 0.11 0.11 0.09 0.13 0.12 0.18 0.16 0.11 0.05 0.04 0.03 0.04 0.05 0.06 0.11 0.14 0.20 0.26 0.26 0.28 0.27 0.23 0.20 0.17
0.03 0.03 0.02 0.03 0.04 0.03 0.03 0.03 0.03 0.03 0.03 0.03 0.04 0.04 0.04 0.05 0.05 0.05 0.05 0.06 0.07 0.07 0.07 0.06 0.06 0.06 0.06 0.06 0.05 0.05 0.04 0.05 0.04 0.04 0.04 0.04 0.04 0.03 0.03 0.04 0.04 0.03 0.03 0.03 0.03 0.03 0.05 0.06 0.06 0.06 0.08 0.08 0.06 0.07 0.10 0.14 0.22 0.24 0.22 0.18 0.17 0.15 0.16 0.16 0.10 0.10 0.15 0.13 0.11 0.10 0.05 0.05 0.05 0.06 0.07 0.09 0.12 0.16 0.22 0.25 0.27 0.28 0.29 0.28 0.24
0.02 0.02 0.03 0.04 0.04 0.03 0.03 0.02 0.02 0.02 0.03 0.04 0.04 0.04 0.05 0.05 0.05 0.06 0.06 0.08 0.08 0.07 0.06 0.05 0.05 0.06 0.05 0.04 0.04 0.04 0.04 0.04 0.04 0.04 0.03 0.03 0.04 0.04 0.04 0.04 0.04 0.04 0.04 0.03 0.03 0.03 0.03 0.04 0.06 0.07 0.07 0.07 0.09 0.07 0.08 0.11 0.15 0.13 0.21 0.20 0.22 0.21 0.23 0.23 0.22 0.17 0.17 0.14 0.12 0.10 0.06 0.04 0.05 0.06 0.06 0.07 0.10 0.12 0.16 0.19 0.25 0.27 0.26 0.28 0.28
0.05 0.05 0.04 0.03 0.02 0.02 0.02 0.02 0.03 0.04 0.04 0.04 0.05 0.06 0.06 0.07 0.08 0.08 0.08 0.07 0.07 0.06 0.06 0.05 0.05 0.05 0.05 0.05 0.05 0.05 0.05 0.06 0.06 0.06 0.05 0.04 0.04 0.05 0.04 0.05 0.04 0.04 0.04 0.04 0.04 0.04 0.04 0.04 0.05 0.05 0.06 0.08 0.08 0.08 0.09 0.10 0.14 0.20 0.14 0.36 0.23 0.31 0.30 0.24 0.24 0.25 0.21 0.17 0.15 0.14 0.08 0.05 0.04 0.04 0.05 0.08 0.11 0.13 0.13 0.15 0.20 0.21 0.24 0.25 0.26
0.05 0.03 0.02 0.02 0.02 0.03 0.03 0.04 0.04 0.04 0.04 0.05 0.06 0.07 0.08 0.09 0.10 0.10 0.10 0.07 0.07 0.06 0.07 0.07 0.07 0.07 0.06 0.06 0.06 0.06 0.08 0.08 0.08 0.15 0.17 0.09 0.06 0.05 0.05 0.05 0.06 0.05 0.05 0.04 0.04 0.05 0.06 0.06 0.06 0.06 0.06 0.06 0.06 0.08 0.09 0.09 0.13 0.11 0.13 0.19 0.21 0.24 0.22 0.26 0.26 0.26 0.25 0.22 0.22 0.12 0.10 0.08 0.04 0.06 0.07 0.08 0.09 0.11 0.11 0.10 0.12 0.11 0.16 0.19 0.23
0.02 0.02 0.03 0.03 0.03 0.04 0.07 0.06 0.07 0.05 0.11 0.08 0.09 0.10 0.11 0.11 0.15 0.13 0.09 0.08 0.09 0.09 0.10 0.11 0.12 0.10 0.09 0.08 0.09 0.10 0.12 0.16 0.14 0.10 0.12 0.13 0.14 0.11 0.08 0.08 0.07 0.07 0.07 0.06 0.05 0.05 0.06 0.06 0.05 0.05 0.05 0.06 0.06 0.07 0.08 0.10 0.11 0.14 0.11 0.13 0.16 0.17 0.19 0.21 0.22 0.23 0.25 0.27 0.27 0.17 0.16 0.10 0.05 0.03 0.04 0.03 0.03 0.02 0.04 0.07 0.10 0.10 0.12 0.16 0.19
0.03 0.03 0.03 0.03 0.05 0.05 0.07 0.06 0.12 0.08 0.11 0.10 0.11 0.11 0.12 0.12 0.12 0.11 0.10 0.11 0.12 0.09 0.10 0.09 0.11 0.11 0.12 0.11 0.11 0.11 0.13 0.10 0.11 0.14 0.19 0.25 0.27 0.28 0.21 0.16 0.12 0.10 0.09 0.08 0.07 0.06 0.06 0.05 0.06 0.06 0.06 0.07 0.08 0.07 0.08 0.10 0.09 0.11 0.11 0.11 0.14 0.18 0.21 0.18 0.14 0.14 0.17 0.22 0.21 0.23 0.13 0.11 0.04 0.02 0.01 0.02 0.01 0.02 0.03 0.04 0.06 0.08 0.13 0.18 0.22
0.04 0.04 0.04 0.04 0.04 0.05 0.06 0.07 0.09 0.10 0.11 0.13 0.13 0.13 0.12 0.13 0.13 0.11 0.10 0.10 0.09 0.10 0.10 0.10 0.10 0.21 0.14 0.14 0.14 0.14 0.11 0.11 0.16 0.23 0.26 0.33 0.37 0.38 0.37 0.27 0.20 0.16 0.12 0.10 0.08 0.07 0.07 0.06 0.06 0.06 0.06 0.07 0.07 0.09 0.09 0.09 0.10 0.10 0.13 0.14 0.15 0.14 0.15 0.21 0.21 0.15 0.12 0.15 0.17 0.18 0.16 0.10 0.07 0.03 0.02 0.02 0.02 0.02 0.03 0.05 0.06 0.09 0.12 0.14 0.16
0.05 0.05 0.04 0.05 0.05 0.06 0.08 0.09 0.11 0.12 0.12 0.12 0.13 0.12 0.13 0.14 0.13 0.14 0.12 0.12 0.12 0.14 0.11 0.13 0.14 0.14 0.17 0.18 0.16 0.14 0.27 0.14 0.21 0.30 0.30 0.38 0.43 0.52 0.55 0.50 0.34 0.26 0.19 0.14 0.12 0.09 0.08 0.08 0.08 0.07 0.06 0.06 0.08 0.08 0.08 0.10 0.10 0.11 0.13 0.13 0.18 0.24 0.19 0.15 0.16 0.18 0.22 0.20 0.17 0.15 0.17 0.10 0.10 0.07 0.03 0.04 0.08 0.04 0.04 0.05 0.06 0.07 0.09 0.12 0.11
0.05 0.05 0.05 0.06 0.06 0.08 0.10 0.11 0.11 0.11 0.11 0.12 0.13 0.14 0.17 0.16 0.15 0.17 0.17 0.17 0.16 0.14 0.13 0.15 0.16 0.18 0.21 0.25 0.26 0.23 0.21 0.19 0.23 0.30 0.33 0.37 0.47 0.73 0.61 0.48 0.36 0.25 0.19 0.16 0.14 0.12 0.11 0.10 0.09 0.09 0.08 0.09 0.10 0.11 0.10 0.11 0.12 0.14 0.15 0.15 0.16 0.16 0.20 0.24 0.18 0.17 0.18 0.21 0.24 0.23 0.15 0.16 0.10 0.08 0.08 0.08 0.12 0.08 0.10 0.12 0.12 0.11 0.11 0.12 0.09
0.06 0.05 0.06 0.06 0.07 0.09 0.10 0.10 0.11 0.11 0.11 0.12 0.13 0.14 0.16 0.17 0.18 0.20 0.20 0.21 0.21 0.19 0.18 0.19 0.19 0.20 0.22 0.25 0.30 0.27 0.22 0.23 0.32 0.38 0.40 0.51 0.63 0.81 0.59 0.45 0.35 0.27 0.22 0.17 0.16 0.15 0.14 0.13 0.11 0.10 0.09 0.11 0.12 0.12 0.16 0.16 0.16 0.16 0.19 0.15 0.13 0.13 0.12 0.25 0.16 0.18 0.16 0.15 0.15 0.13 0.10 0.11 0.09 0.11 0.25 0.18 0.25 0.18 0.20 0.15 0.19 0.14 0.15 0.16 0.16
0.05 0.05 0.07 0.07 0.09 0.10 0.11 0.11 0.11 0.11 0.12 0.13 0.15 0.16 0.17 0.17 0.18 0.17 0.19 0.20 0.19 0.19 0.17 0.18 0.17 0.16 0.14 0.15 0.20 0.22 0.19 0.22 0.31 0.41 0.53 0.70 0.77 0.76 0.64 0.57 0.36 0.29 0.25 0.31 0.23 0.22 0.20 0.22 0.18 0.16 0.13 0.13 0.14 0.13 0.13 0.17 0.16 0.18 0.17 0.15 0.13 0.12 0.11 0.07 0.07 0.06 0.07 0.16 0.07 0.07 0.08 0.07 0.09 0.11 0.14 0.13 0.25 0.23 0.18 0.22 0.24 0.28 0.29 0.29 0.26
0.06 0.07 0.08 0.09 0.11 0.12 0.13 0.13 0.14 0.14 0.14 0.16 0.16 0.16 0.17 0.18 0.20 0.21 0.23 0.21 0.21 0.20 0.20 0.18 0.17 0.15 0.14 0.17 0.17 0.12 0.13 0.18 0.25 0.33 0.45 0.51 0.73 0.77 0.72 0.56 0.38 0.28 0.26 0.22 0.23 0.22 0.24 0.24 0.26 0.22 0.19 0.17 0.15 0.16 0.19 0.23 0.24 0.21 0.17 0.15 0.13 0.13 0.12 0.09 0.09 0.08 0.09 0.09 0.10 0.10 0.09 0.11 0.13 0.14 0.18 0.14 0.13 0.17 0.23 0.32 0.33 0.25 0.24 0.25 0.21
0.08 0.09 0.11 0.12 0.13 0.14 0.15 0.16 0.17 0.15 0.15 0.16 0.16 0.17 0.20 0.21 0.20 0.19 0.20 0.19 0.17 0.14 0.13 0.12 0.12 0.13 0.13 0.13 0.14 0.13 0.09 0.11 0.18 0.30 0.37 0.45 0.69 0.83 0.79 0.61 0.43 0.36 0.30 0.24 0.23 0.24 0.20 0.20 0.23 0.25 0.24 0.22 0.16 0.20 0.26 0.33 0.37 0.26 0.19 0.16 0.15 0.14 0.12 0.10 0.11 0.12 0.12 0.17 0.22 0.20 0.19 0.18 0.16 0.17 0.19 0.27 0.39 0.37 0.28 0.38 0.26 0.18 0.21 0.19 0.18
0.10 0.12 0.14 0.13 0.14 0.15 0.14 0.14 0.15 0.15 0.15 0.15 0.17 0.21 0.20 0.17 0.14 0.14 0.14 0.14 0.12 0.12 0.13 0.12 0.09 0.09 0.09 0.12 0.13 0.17 0.18 0.18 0.22 0.26 0.28 0.40 0.50 0.59 0.51 0.47 0.41 0.35 0.35 0.34 0.29 0.28 0.25 0.24 0.25 0.29 0.26 0.19 0.18 0.24 0.33 0.44 0.44 0.26 0.17 0.15 0.14 0.12 0.09 0.10 0.13 0.17 0.17 0.17 0.18 0.18 0.18 0.20 0.23 0.22 0.24 0.21 0.20 0.31 0.39 0.32 0.25 0.25 0.30 0.23 0.17
0.12 0.14 0.14 0.15 0.13 0.12 0.12 0.14 0.15 0.15 0.16 0.15 0.17 0.19 0.16 0.15 0.14 0.15 0.13 0.13 0.13 0.11 0.11 0.11 0.11 0.09 0.09 0.12 0.13 0.19 0.24 0.21 0.24 0.25 0.29 0.37 0.51 0.57 0.51 0.46 0.42 0.35 0.38 0.37 0.38 0.35 0.30 0.29 0.28 0.27 0.29 0.26 0.23 0.30 0.42 0.68 0.67 0.45 0.20 0.17 0.14 0.09 0.07 0.09 0.11 0.12 0.13 0.14 0.13 0.13 0.17 0.17 0.19 0.17 0.16 0.16 0.19 0.20 0.22 0.28 0.29 0.26 0.28 0.27 0.23
0.14 0.14 0.13 0.11 0.11 0.11 0.12 0.14 0.16 0.16 0.17 0.20 0.20 0.16 0.14 0.16 0.15 0.13 0.13 0.12 0.13 0.13 0.10 0.10 0.12 0.12 0.12 0.12 0.15 0.21 0.27 0.33 0.34 0.35 0.31 0.31 0.36 0.54 0.45 0.36 0.30 0.33 0.37 0.40 0.35 0.30 0.25 0.24 0.23 0.25 0.25 0.27 0.33 0.34 0.42 0.51 0.53 0.54 0.61 0.36 0.14 0.09 0.09 0.13 0.15 0.15 0.16 0.15 0.15 0.14 0.15 0.17 0.20 0.18 0.18 0.15 0.17 0.15 0.13 0.16 0.21 0.22 0.20 0.24 0.27
0.12 0.12 0.11 0.10 0.10 0.12 0.14 0.15 0.17 0.19 0.18 0.18 0.18 0.15 0.13 0.14 0.15 0.15 0.15 0.15 0.14 0.13 0.12 0.15 0.18 0.17 0.16 0.19 0.24 0.29 0.25 0.23 0.21 0.18 0.15 0.18 0.26 0.46 0.41 0.30 0.25 0.33 0.36 0.34 0.31 0.28 0.25 0.21 0.21 0.23 0.27 0.33 0.36 0.41 0.56 0.56 0.55 0.58 0.50 0.40 0.23 0.18 0.15 0.18 0.22 0.25 0.21 0.18 0.17 0.18 0.19 0.19 0.24 0.21 0.18 0.15 0.11 0.10 0.11 0.12 0.11 0.14 0.14 0.14 0.17
0.11 0.11 0.11 0.11 0.11 0.13 0.15 0.17 0.18 0.18 0.18 0.19 0.21 0.18 0.14 0.14 0.14 0.16 0.18 0.22 0.21 0.22 0.22 0.23 0.24 0.22 0.19 0.18 0.18 0.20 0.21 0.21 0.20 0.17 0.16 0.20 0.24 0.39 0.36 0.30 0.29 0.33 0.34 0.33 0.27 0.23 0.22 0.23 0.22 0.25 0.33 0.39 0.47 0.54 0.62 0.62 0.54 0.51 0.60 0.52 0.43 0.46 0.50 0.48 0.47 0.37 0.29 0.23 0.20 0.19 0.18 0.17 0.18 0.18 0.17 0.15 0.12 0.10 0.08 0.10 0.11 0.12 0.19 0.20 0.13
0.11 0.12 0.12 0.11 0.12 0.13 0.14 0.15 0.17 0.19 0.22 0.21 0.19 0.16 0.15 0.15 0.15 0.16 0.19 0.23 0.24 0.22 0.18 0.20 0.20 0.20 0.20 0.20 0.22 0.23 0.23 0.21 0.21 0.20 0.20 0.20 0.25 0.34 0.37 0.33 0.35 0.36 0.30 0.26 0.23 0.22 0.22 0.20 0.21 0.24 0.31 0.39 0.52 0.58 0.77 0.86 0.69 0.66 0.68 0.58 0.57 0.57 0.53 0.52 0.51 0.54 0.44 0.29 0.23 0.19 0.16 0.13 0.11 0.14 0.13 0.12 0.13 0.11 0.10 0.10 0.11 0.13 0.34 0.22 0.13
0.13 0.13 0.12 0.12 0.13 0.13 0.14 0.16 0.16 0.18 0.18 0.19 0.19 0.17 0.14 0.14 0.15 0.16 0.20 0.25 0.26 0.22 0.19 0.22 0.24 0.24 0.25 0.29 0.31 0.29 0.25 0.22 0.22 0.21 0.22 0.22 0.26 0.32 0.39 0.31 0.33 0.34 0.34 0.25 0.20 0.19 0.19 0.24 0.25 0.27 0.33 0.44 0.48 0.51 0.65 0.61 0.62 0.64 0.63 0.58 0.46 0.37 0.51 0.50 0.41 0.34 0.33 0.33 0.27 0.19 0.15 0.12 0.11 0.10 0.11 0.12 0.14 0.12 0.13 0.14 0.16 0.14 0.13 0.13 0.13
0.14 0.14 0.12 0.12 0.12 0.14 0.15 0.13 0.14 0.15 0.15 0.13 0.14 0.15 0.15 0.16 0.19 0.19 0.23 0.25 0.21 0.24 0.27 0.27 0.29 0.29 0.32 0.34 0.37 0.34 0.29 0.26 0.23 0.21 0.22 0.22 0.21 0.24 0.33 0.30 0.28 0.27 0.28 0.25 0.22 0.19 0.21 0.24 0.29 0.27 0.28 0.31 0.35 0.35 0.50 0.30 0.32 0.41 0.50 0.52 0.59 0.47 0.40 0.38 0.34 0.30 0.27 0.21 0.17 0.17 0.17 0.16 0.17 0.14 0.13 0.13 0.14 0.14 0.13 0.14 0.14 0.14 0.12 0.12 0.12
0.15 0.13 0.11 0.11 0.13 0.14 0.15 0.15 0.16 0.14 0.12 0.12 0.12 0.12 0.14 0.17 0.19 0.22 0.26 0.24 0.23 0.27 0.31 0.34 0.36 0.36 0.36 0.31 0.31 0.30 0.28 0.25 0.23 0.20 0.18 0.20 0.18 0.19 0.32 0.31 0.28 0.25 0.22 0.23 0.26 0.27 0.26 0.31 0.30 0.30 0.31 0.31 0.33 0.35 0.28 0.21 0.27 0.40 0.39 0.41 0.42 0.50 0.43 0.32 0.23 0.22 0.21 0.19 0.17 0.14 0.13 0.16 0.21 0.24 0.21 0.18 0.17 0.15 0.12 0.11 0.11 0.11 0.11 0.11 0.10
0.15 0.14 0.12 0.13 0.15 0.15 0.16 0.15 0.15 0.13 0.14 0.15 0.16 0.13 0.13 0.13 0.18 0.23 0.28 0.33 0.39 0.39 0.42 0.42 0.43 0.47 0.47 0.37 0.30 0.23 0.25 0.27 0.25 0.25 0.23 0.23 0.23 0.28 0.34 0.31 0.28 0.22 0.21 0.21 0.20 0.21 0.25 0.31 0.37 0.40 0.45 0.49 0.42 0.41 0.41 0.43 0.37 0.28 0.22 0.24 0.33 0.38 0.43 0.41 0.38 0.24 0.23 0.17 0.16 0.17 0.19 0.19 0.22 0.23 0.24 0.24 0.18 0.14 0.13 0.13 0.12 0.11 0.10 0.11 0.15
0.14 0.13 0.12 0.13 0.13 0.13 0.14 0.14 0.13 0.13 0.14 0.14 0.19 0.22 0.20 0.22 0.24 0.20 0.16 0.26 0.43 0.69 0.80 0.65 0.59 0.58 0.47 0.48 0.38 0.25 0.24 0.28 0.29 0.25 0.24 0.25 0.30 0.32 0.33 0.29 0.26 0.25 0.21 0.20 0.22 0.27 0.30 0.33 0.32 0.29 0.26 0.28 0.36 0.39 0.37 0.33 0.30 0.24 0.21 0.20 0.24 0.38 0.50 0.49 0.47 0.41 0.31 0.25 0.22 0.20 0.21 0.21 0.20 0.18 0.18 0.21 0.21 0.16 0.13 0.15 0.14 0.11 0.11 0.10 0.10
0.17 0.14 0.13 0.13 0.13 0.13 0.13 0.12 0.11 0.13 0.14 0.14 0.14 0.18 0.22 0.27 0.28 0.29 0.23 0.18 0.24 0.34 0.56 0.69 0.68 0.59 0.52 0.42 0.38 0.42 0.42 0.34 0.28 0.23 0.24 0.23 0.27 0.30 0.30 0.29 0.30 0.25 0.23 0.17 0.19 0.20 0.22 0.23 0.25 0.26 0.28 0.27 0.29 0.32 0.32 0.32 0.36 0.36 0.31 0.25 0.23 0.26 0.34 0.49 0.43 0.31 0.29 0.29 0.27 0.24 0.20 0.17 0.18 0.18 0.17 0.17 0.15 0.14 0.15 0.17 0.16 0.14 0.14 0.16 0.13
0.20 0.16 0.14 0.14 0.13 0.15 0.14 0.13 0.12 0.14 0.15 0.14 0.14 0.16 0.16 0.17 0.23 0.26 0.22 0.20 0.21 0.26 0.32 0.39 0.40 0.42 0.59 0.54 0.31 0.26 0.28 0.25 0.22 0.20 0.20 0.24 0.27 0.28 0.33 0.33 0.26 0.27 0.22 0.20 0.21 0.20 0.20 0.20 0.23 0.24 0.26 0.27 0.28 0.29 0.27 0.25 0.28 0.32 0.35 0.31 0.26 0.25 0.26 0.30 0.44 0.43 0.43 0.42 0.36 0.28 0.25 0.20 0.18 0.17 0.17 0.15 0.12 0.13 0.14 0.15 0.16 0.19 0.19 0.15 0.13
0.24 0.20 0.17 0.16 0.15 0.14 0.14 0.14 0.14 0.14 0.14 0.13 0.14 0.15 0.14 0.12 0.11 0.17 0.27 0.28 0.23 0.23 0.25 0.28 0.31 0.36 0.46 0.51 0.43 0.27 0.23 0.22 0.22 0.21 0.24 0.28 0.30 0.30 0.34 0.31 0.34 0.26 0.22 0.21 0.20 0.22 0.18 0.19 0.21 0.23 0.23 0.23 0.25 0.24 0.23 0.22 0.23 0.25 0.30 0.36 0.35 0.29 0.26 0.28 0.30 0.34 0.35 0.34 0.37 0.37 0.34 0.31 0.24 0.19 0.16 0.16 0.15 0.15 0.16 0.22 0.23 0.20 0.20 0.19 0.13
0.22 0.21 0.18 0.16 0.15 0.13 0.14 0.14 0.14 0.14 0.14 0.14 0.14 0.15 0.15 0.15 0.15 0.13 0.14 0.19 0.26 0.29 0.25 0.24 0.25 0.29 0.34 0.43 0.42 0.35 0.27 0.24 0.24 0.26 0.27 0.29 0.29 0.27 0.37 0.32 0.27 0.22 0.21 0.22 0.19 0.20 0.20 0.20 0.22 0.23 0.21 0.20 0.20 0.19 0.21 0.21 0.21 0.22 0.22 0.23 0.26 0.28 0.26 0.25 0.26 0.27 0.29 0.36 0.37 0.30 0.30 0.38 0.31 0.25 0.20 0.17 0.18 0.22 0.20 0.18 0.18 0.20 0.19 0.19 0.17
0.20 0.21 0.20 0.17 0.16 0.15 0.14 0.14 0.15 0.14 0.15 0.16 0.16 0.16 0.15 0.17 0.18 0.18 0.18 0.13 0.15 0.20 0.23 0.23 0.25 0.26 0.27 0.34 0.39 0.31 0.27 0.26 0.26 0.28 0.35 0.31 0.32 0.29 0.28 0.25 0.22 0.16 0.15 0.16 0.16 0.16 0.17 0.17 0.19 0.19 0.18 0.17 0.17 0.17 0.17 0.18 0.18 0.17 0.18 0.19 0.19 0.19 0.20 0.20 0.21 0.23 0.25 0.29 0.33 0.29 0.24 0.25 0.27 0.29 0.31 0.27 0.21 0.19 0.20 0.22 0.19 0.19 0.22 0.24 0.19
0.18 0.18 0.15 0.14 0.15 0.15 0.15 0.15 0.16 0.15 0.14 0.15 0.15 0.16 0.17 0.16 0.18 0.21 0.24 0.23 0.25 0.25 0.21 0.21 0.17 0.14 0.21 0.25 0.32 0.28 0.26 0.27 0.27 0.28 0.32 0.28 0.23 0.24 0.22 0.25 0.27 0.18 0.15 0.13 0.13 0.13 0.13 0.15 0.15 0.15 0.14 0.14 0.14 0.13 0.13 0.14 0.15 0.15 0.15 0.15 0.15 0.15 0.15 0.16 0.16 0.16 0.17 0.19 0.22 0.23 0.23 0.23 0.22 0.22 0.24 0.28 0.29 0.29 0.25 0.23 0.22 0.22 0.22 0.19 0.17
0.18 0.18 0.14 0.13 0.13 0.14 0.14 0.15 0.16 0.16 0.16 0.16 0.16 0.18 0.18 0.16 0.19 0.21 0.22 0.22 0.27 0.26 0.24 0.21 0.20 0.17 0.15 0.17 0.23 0.25 0.25 0.22 0.26 0.30 0.28 0.24 0.23 0.18 0.17 0.17 0.14 0.12 0.13 0.14 0.12 0.13 0.12 0.13 0.13 0.12 0.12 0.11 0.13 0.14 0.15 0.14 0.15 0.15 0.14 0.12 0.11 0.10 0.11 0.11 0.12 0.13 0.14 0.15 0.17 0.19 0.21 0.25 0.24 0.23 0.23 0.23 0.26 0.28 0.26 0.21 0.18 0.19 0.19 0.18 0.18
0.20 0.18 0.15 0.13 0.14 0.15 0.15 0.15 0.16 0.16 0.15 0.16 0.16 0.16 0.17 0.16 0.17 0.18 0.18 0.19 0.23 0.23 0.23 0.20 0.16 0.13 0.13 0.12 0.18 0.20 0.22 0.27 0.30 0.28 0.26 0.23 0.19 0.14 0.11 0.11 0.12 0.14 0.13 0.14 0.13 0.12 0.12 0.12 0.12 0.11 0.11 0.12 0.14 0.14 0.14 0.14 0.13 0.12 0.11 0.10 0.10 0.10 0.11 0.12 0.12 0.11 0.11 0.13 0.14 0.15 0.17 0.20 0.22 0.21 0.20 0.21 0.22 0.22 0.24 0.27 0.27 0.24 0.21 0.19 0.16
0.19 0.17 0.16 0.15 0.15 0.15 0.15 0.15 0.15 0.14 0.14 0.15 0.15 0.15 0.16 0.16 0.17 0.17 0.18 0.18 0.19 0.20 0.20 0.18 0.17 0.14 0.16 0.15 0.16 0.20 0.21 0.21 0.19 0.21 0.22 0.22 0.19 0.14 0.12 0.12 0.14 0.12 0.11 0.11 0.11 0.11 0.11 0.10 0.10 0.10 0.11 0.10 0.09 0.09 0.09 0.09 0.09 0.08 0.08 0.07 0.08 0.08 0.10 0.09 0.11 0.11 0.10 0.10 0.11 0.12 0.14 0.16 0.20 0.22 0.21 0.18 0.18 0.18 0.19 0.19 0.22 0.26 0.29 0.28 0.25
0.17 0.14 0.14 0.14 0.16 0.16 0.16 0.16 0.14 0.14 0.14 0.14 0.14 0.15 0.16 0.16 0.15 0.16 0.17 0.16 0.14 0.16 0.18 0.18 0.17 0.16 0.18 0.20 0.23 0.21 0.19 0.20 0.21 0.21 0.23 0.21 0.17 0.14 0.13 0.14 0.13 0.11 0.11 0.11 0.11 0.10 0.09 0.09 0.09 0.08 0.07 0.07 0.07 0.08 0.08 0.08 0.07 0.07 0.06 0.06 0.06 0.06 0.07 0.07 0.07 0.08 0.09 0.09 0.09 0.10 0.11 0.13 0.15 0.18 0.19 0.17 0.14 0.14 0.15 0.16 0.16 0.18 0.20 0.23 0.25
0.19 0.16 0.14 0.14 0.16 0.16 0.16 0.16 0.15 0.16 0.16 0.15 0.14 0.15 0.16 0.15 0.16 0.17 0.18 0.16 0.14 0.15 0.17 0.18 0.19 0.18 0.21 0.23 0.26 0.22 0.16 0.17 0.16 0.16 0.16 0.16 0.17 0.17 0.14 0.12 0.11 0.12 0.13 0.13 0.12 0.11 0.10 0.09 0.08 0.07 0.06 0.06 0.06 0.06 0.07 0.07 0.07 0.06 0.06 0.06 0.06 0.06 0.06 0.07 0.07 0.07 0.07 0.08 0.09 0.09 0.09 0.10 0.11 0.12 0.15 0.16 0.16 0.14 0.14 0.13 0.13 0.14 0.14 0.14 0.15
0.21 0.19 0.17 0.16 0.16 0.17 0.16 0.15 0.16 0.17 0.17 0.16 0.15 0.16 0.17 0.16 0.16 0.18 0.17 0.15 0.14 0.14 0.16 0.19 0.20 0.21 0.24 0.27 0.24 0.22 0.18 0.19 0.18 0.17 0.18 0.16 0.15 0.13 0.12 0.12 0.13 0.12 0.13 0.13 0.13 0.13 0.11 0.10 0.08 0.07 0.06 0.05 0.06 0.07 0.07 0.07 0.06 0.06 0.06 0.05 0.05 0.05 0.06 0.06 0.06 0.06 0.06 0.07 0.07 0.08 0.08 0.09 0.09 0.10 0.11 0.13 0.15 0.15 0.14 0.15 0.15 0.15 0.15 0.14 0.13
0.21 0.21 0.20 0.18 0.16 0.17 0.17 0.15 0.17 0.17 0.16 0.16 0.15 0.17 0.18 0.17 0.16 0.18 0.17 0.15 0.14 0.14 0.15 0.17 0.19 0.21 0.23 0.24 0.23 0.22 0.15 0.16 0.16 0.16 0.17 0.17 0.15 0.13 0.13 0.12 0.12 0.12 0.13 0.13 0.14 0.13 0.11 0.10 0.08 0.07 0.06 0.06 0.06 0.06 0.07 0.07 0.07 0.07 0.07 0.06 0.06 0.06 0.06 0.06 0.06 0.06 0.06 0.06 0.06 0.07 0.07 0.08 0.09 0.10 0.10 0.12 0.11 0.12 0.13 0.14 0.15 0.15 0.15 0.15 0.14
0.21 0.21 0.22 0.20 0.19 0.19 0.20 0.19 0.17 0.15 0.14 0.14 0.15 0.16 0.17 0.17 0.17 0.18 0.16 0.15 0.15 0.14 0.14 0.14 0.16 0.18 0.20 0.20 0.19 0.18 0.16 0.14 0.14 0.16 0.16 0.15 0.15 0.14 0.12 0.12 0.12 0.12 0.13 0.13 0.13 0.12 0.10 0.09 0.08 0.07 0.07 0.06 0.06 0.07 0.07 0.07 0.07 0.07 0.07 0.07 0.07 0.07 0.07 0.07 0.06 0.07 0.07 0.07 0.07 0.07 0.06 0.06 0.07 0.08 0.09 0.09 0.10 0.10 0.11 0.11 0.12 0.13 0.13 0.13 0.13
0.21 0.21 0.22 0.22 0.20 0.19 0.19 0.19 0.17 0.17 0.17 0.16 0.15 0.15 0.15 0.17 0.17 0.17 0.16 0.14 0.14 0.14 0.15 0.15 0.16 0.17 0.19 0.20 0.18 0.15 0.15 0.14 0.15 0.15 0.15 0.14 0.12 0.12 0.12 0.12 0.12 0.12 0.12 0.11 0.11 0.10 0.09 0.09 0.08 0.07 0.06 0.06 0.06 0.06 0.06 0.06 0.06 0.07 0.07 0.07 0.07 0.07 0.07 0.07 0.07 0.07 0.08 0.08 0.07 0.07 0.07 0.06 0.06 0.06 0.07 0.08 0.09 0.10 0.10 0.10 0.11 0.11 0.12 0.12 0.12
0.20 0.21 0.22 0.22 0.20 0.20 0.19 0.19 0.19 0.18 0.17 0.16 0.16 0.15 0.16 0.15 0.17 0.17 0.15 0.14 0.14 0.15 0.16 0.16 0.16 0.17 0.19 0.20 0.18 0.17 0.16 0.15 0.15 0.15 0.15 0.14 0.14 0.12 0.12 0.13 0.14 0.12 0.12 0.11 0.10 0.10 0.09 0.09 0.09 0.08 0.07 0.06 0.05 0.04 0.04 0.04 0.05 0.06 0.07 0.07 0.07 0.07 0.07 0.07 0.07 0.07 0.08 0.08 0.07 0.07 0.07 0.07 0.07 0.07 0.06 0.07 0.07 0.08 0.08 0.09 0.09 0.10 0.11 0.12 0.12
0.20 0.20 0.20 0.21 0.21 0.19 0.19 0.18 0.19 0.18 0.18 0.19 0.19 0.18 0.16 0.15 0.17 0.17 0.15 0.14 0.15 0.15 0.16 0.16 0.16 0.17 0.19 0.21 0.20 0.18 0.18 0.17 0.16 0.16 0.15 0.15 0.14 0.12 0.12 0.13 0.13 0.12 0.12 0.11 0.10 0.09 0.09 0.09 0.09 0.08 0.07 0.05 0.03 0.03 0.03 0.03 0.03 0.03 0.04 0.04 0.05 0.06 0.07 0.07 0.07 0.07 0.07 0.07 0.07 0.07 0.07 0.07 0.07 0.07 0.07 0.07 0.07 0.07 0.08 0.08 0.09 0.09 0.10 0.10 0.11
0.19 0.19 0.20 0.21 0.22 0.21 0.21 0.21 0.21 0.21 0.20 0.21 0.21 0.19 0.16 0.16 0.19 0.16 0.16 0.16 0.15 0.16 0.16 0.16 0.16 0.17 0.20 0.21 0.20 0.20 0.19 0.17 0.17 0.16 0.16 0.15 0.14 0.13 0.12 0.11 0.11 0.10 0.09 0.08 0.08 0.08 0.08 0.07 0.07 0.07 0.06 0.05 0.03 0.02 0.02 0.02 0.02 0.02 0.02 0.03 0.03 0.03 0.03 0.04 0.04 0.04 0.05 0.05 0.05 0.06 0.06 0.06 0.06 0.06 0.06 0.06 0.06 0.07 0.07 0.07 0.08 0.08 0.08 0.09 0.09
0.19 0.20 0.20 0.20 0.20 0.22 0.24 0.25 0.25 0.24 0.22 0.22 0.22 0.19 0.17 0.17 0.19 0.15 0.16 0.16 0.16 0.17 0.17 0.16 0.16 0.17 0.19 0.22 0.21 0.20 0.18 0.16 0.15 0.15 0.14 0.14 0.13 0.13 0.12 0.12 0.11 0.09 0.08 0.07 0.06 0.05 0.05 0.05 0.05 0.05 0.05 0.04 0.03 0.03 0.02 0.02 0.02 0.02 0.02 0.02 0.02 0.02 0.02 0.02 0.02 0.02 0.02 0.03 0.03 0.03 0.04 0.04 0.04 0.05 0.05 0.05 0.06 0.06 0.06 0.06 0.06 0.07 0.07 0.07 0.08
0.19 0.20 0.20 0.20 0.21 0.22 0.24 0.26 0.25 0.26 0.25 0.23 0.21 0.20 0.20 0.19 0.16 0.15 0.18 0.17 0.18 0.18 0.17 0.15 0.15 0.16 0.17 0.19 0.20 0.19 0.18 0.16 0.14 0.13 0.12 0.12 0.11 0.11 0.11 0.10 0.09 0.07 0.06 0.05 0.04 0.04 0.04 0.03 0.04 0.04 0.04 0.04 0.03 0.03 0.03 0.03 0.03 0.02 0.02 0.02 0.02 0.01 0.01 0.01 0.02 0.02 0.02 0.02 0.02 0.02 0.02 0.02 0.02 0.02 0.03 0.03 0.03 0.04 0.05 0.05 0.06 0.06 0.06 0.06 0.07
0.19 0.19 0.20 0.20 0.21 0.22 0.22 0.23 0.23 0.23 0.23 0.22 0.22 0.22 0.20 0.15 0.14 0.15 0.17 0.17 0.18 0.17 0.15 0.15 0.15 0.15 0.15 0.16 0.16 0.15 0.14 0.12 0.11 0.11 0.11 0.10 0.09 0.08 0.08 0.07 0.06 0.05 0.04 0.04 0.03 0.03 0.02 0.02 0.03 0.03 0.03 0.03 0.03 0.03 0.03 0.03 0.03 0.03 0.03 0.02 0.02 0.02 0.02 0.01 0.01 0.01 0.01 0.02 0.02 0.02 0.02 0.02 0.02 0.02 0.02 0.02 0.02 0.02 0.03 0.03 0.04 0.04 0.05 0.05 0.05
0.18 0.19 0.19 0.21 0.22 0.22 0.22 0.22 0.22 0.22 0.22 0.22 0.20 0.18 0.15 0.14 0.15 0.16 0.17 0.17 0.17 0.17 0.16 0.16 0.15 0.14 0.14 0.14 0.14 0.12 0.11 0.09 0.08 0.08 0.07 0.07 0.06 0.05 0.05 0.04 0.04 0.03 0.03 0.02 0.02 0.02 0.02 0.02 0.02 0.02 0.02 0.02 0.02 0.03 0.03 0.03 0.03 0.03 0.03 0.02 0.02 0.02 0.02 0.02 0.02 0.02 0.01 0.02 0.01 0.01 0.01 0.01 0.01 0.01 0.01 0.01 0.01 0.02 0.02 0.02 0.02 0.03 0.03 0.04 0.04